TimeCST,TemperatureF,Dew PointF,Humidity,Sea Level PressureIn,VisibilityMPH,Wind Direction,Wind SpeedMPH,Gust SpeedMPH,PrecipitationIn,Events,Conditions,WindDirDegrees,DateUTC
12:15 AM,12.2,7.5,82,30.42,10.0,ENE,3.5,-,N/A,,Clear,60,2014-03-06 06:15:00
12:35 AM,12.6,7.7,81,30.42,10.0,NNE,4.6,-,N/A,,Clear,30,2014-03-06 06:35:00
12:55 AM,12.2,7.5,82,30.41,10.0,ENE,4.6,-,N/A,,Clear,60,2014-03-06 06:55:00
1:15 AM,12.7,8.1,82,30.41,10.0,NNE,3.5,-,N/A,,Clear,30,2014-03-06 07:15:00
1:35 AM,12.0,7.5,82,30.40,10.0,NE,3.5,-,N/A,,Clear,40,2014-03-06 07:35:00
1:55 AM,10.8,6.6,83,30.40,10.0,NE,4.6,-,N/A,,Clear,40,2014-03-06 07:55:00
2:15 AM,10.6,6.4,83,30.39,10.0,NE,5.8,-,N/A,,Clear,40,2014-03-06 08:15:00
2:35 AM,10.0,6.3,85,30.39,10.0,NNE,5.8,-,N/A,,Clear,20,2014-03-06 08:35:00
2:50 AM,9.3,5.5,85,30.39,10.0,NE,4.6,-,N/A,,Clear,40,2014-03-06 08:50:00
3:15 AM,8.8,5.2,85,30.37,10.0,NE,6.9,-,N/A,,Clear,50,2014-03-06 09:15:00
3:35 AM,9.3,5.5,85,30.37,10.0,NE,4.6,-,N/A,,Clear,50,2014-03-06 09:35:00
3:55 AM,8.8,5.2,85,30.36,10.0,ENE,8.1,-,N/A,,Clear,60,2014-03-06 09:55:00
4:15 AM,9.0,5.5,86,30.37,10.0,NE,6.9,-,N/A,,Clear,40,2014-03-06 10:15:00
4:35 AM,8.8,5.2,85,30.37,10.0,ENE,4.6,-,N/A,,Clear,60,2014-03-06 10:35:00
4:55 AM,7.3,4.3,87,30.37,10.0,ENE,4.6,-,N/A,,Clear,60,2014-03-06 10:55:00
5:15 AM,7.7,4.5,87,30.36,10.0,ENE,5.8,-,N/A,,Clear,70,2014-03-06 11:15:00
5:35 AM,8.1,5.2,88,30.36,10.0,ENE,5.8,-,N/A,,Clear,60,2014-03-06 11:35:00
5:55 AM,8.4,5.2,87,30.36,10.0,ENE,4.6,-,N/A,,Clear,60,2014-03-06 11:55:00
6:15 AM,6.4,3.2,87,30.35,10.0,NE,4.6,-,N/A,,Clear,50,2014-03-06 12:15:00
6:35 AM,7.9,5.0,88,30.35,10.0,Calm,Calm,-,N/A,,Clear,0,2014-03-06 12:35:00
6:55 AM,7.7,4.6,87,30.34,10.0,ENE,5.8,-,N/A,,Clear,70,2014-03-06 12:55:00
7:15 AM,7.5,4.1,86,30.34,10.0,East,5.8,-,N/A,,Clear,80,2014-03-06 13:15:00
7:35 AM,8.2,5.0,87,30.34,10.0,East,3.5,-,N/A,,Clear,80,2014-03-06 13:35:00
7:55 AM,9.9,5.9,84,30.34,10.0,ENE,5.8,-,N/A,,Clear,70,2014-03-06 13:55:00
8:15 AM,11.8,7.2,81,30.33,10.0,ENE,8.1,-,N/A,,Clear,60,2014-03-06 14:15:00
8:35 AM,13.6,7.9,78,30.34,10.0,NE,5.8,-,N/A,,Clear,40,2014-03-06 14:35:00
8:55 AM,15.4,9.0,76,30.33,10.0,ENE,4.6,-,N/A,,Clear,60,2014-03-06 14:55:00
9:15 AM,16.7,9.9,74,30.32,10.0,ENE,6.9,-,N/A,,Clear,70,2014-03-06 15:15:00
9:35 AM,19.2,10.9,70,30.32,10.0,East,5.8,-,N/A,,Clear,80,2014-03-06 15:35:00
9:55 AM,22.3,12.0,65,30.31,10.0,SE,11.5,-,N/A,,Clear,130,2014-03-06 15:55:00
10:15 AM,22.1,12.2,66,30.30,10.0,SE,9.2,-,N/A,,Clear,130,2014-03-06 16:15:00
10:35 AM,22.3,12.2,65,30.31,10.0,SE,9.2,-,N/A,,Clear,140,2014-03-06 16:35:00
10:55 AM,22.6,12.6,65,30.30,10.0,SE,8.1,-,N/A,,Clear,130,2014-03-06 16:55:00
11:10 AM,22.5,12.9,67,30.30,10.0,ESE,6.9,-,N/A,,Clear,120,2014-03-06 17:10:00
11:35 AM,24.6,13.5,63,30.29,10.0,SSE,5.8,-,N/A,,Clear,150,2014-03-06 17:35:00
11:55 AM,25.0,14.0,63,30.29,10.0,SSE,5.8,-,N/A,,Clear,160,2014-03-06 17:55:00
12:15 PM,24.6,14.0,64,30.27,10.0,SSE,5.8,-,N/A,,Clear,150,2014-03-06 18:15:00
12:35 PM,24.3,13.8,64,30.26,10.0,South,4.6,-,N/A,,Clear,170,2014-03-06 18:35:00
12:55 PM,25.7,14.7,63,30.24,10.0,SSE,6.9,-,N/A,,Clear,150,2014-03-06 18:55:00
1:15 PM,25.9,15.3,64,30.22,10.0,SSE,5.8,-,N/A,,Clear,160,2014-03-06 19:15:00
1:35 PM,25.5,15.3,65,30.22,10.0,Calm,Calm,-,N/A,,Clear,0,2014-03-06 19:35:00
1:55 PM,26.6,16.2,65,30.21,10.0,SSE,5.8,-,N/A,,Clear,160,2014-03-06 19:55:00
2:15 PM,27.0,15.8,63,30.21,10.0,SE,4.6,-,N/A,,Clear,140,2014-03-06 20:15:00
2:35 PM,27.1,16.3,64,30.21,10.0,SSE,3.5,-,N/A,,Clear,150,2014-03-06 20:35:00
2:55 PM,27.1,16.5,64,30.19,10.0,SSE,4.6,-,N/A,,Clear,160,2014-03-06 20:55:00
3:15 PM,27.1,16.5,64,30.19,10.0,Calm,Calm,-,N/A,,Clear,0,2014-03-06 21:15:00
3:35 PM,27.1,16.7,65,30.18,10.0,SSE,4.6,-,N/A,,Clear,150,2014-03-06 21:35:00
3:55 PM,26.4,16.7,67,30.17,10.0,SSE,5.8,-,N/A,,Clear,160,2014-03-06 21:55:00
4:15 PM,25.7,16.5,68,30.17,10.0,SSE,4.6,-,N/A,,Clear,160,2014-03-06 22:15:00
4:35 PM,25.3,16.2,68,30.16,10.0,SE,4.6,-,N/A,,Clear,140,2014-03-06 22:35:00
4:55 PM,23.5,15.3,71,30.15,10.0,SE,5.8,-,N/A,,Clear,130,2014-03-06 22:55:00
5:15 PM,23.7,15.1,70,30.15,10.0,SE,5.8,-,N/A,,Clear,130,2014-03-06 23:15:00
5:35 PM,22.1,14.2,72,30.14,10.0,SE,6.9,-,N/A,,Clear,130,2014-03-06 23:35:00
5:55 PM,19.2,12.9,76,30.13,10.0,SE,6.9,-,N/A,,Clear,130,2014-03-06 23:55:00
6:15 PM,18.5,13.1,79,30.12,10.0,SE,5.8,-,N/A,,Clear,130,2014-03-07 00:15:00
6:35 PM,16.7,11.3,79,30.11,10.0,SE,5.8,-,N/A,,Clear,130,2014-03-07 00:35:00
6:55 PM,18.1,12.9,80,30.10,10.0,ESE,4.6,-,N/A,,Clear,110,2014-03-07 00:55:00
7:15 PM,17.4,13.1,83,30.10,10.0,Calm,Calm,-,N/A,,Clear,0,2014-03-07 01:15:00
7:35 PM,16.5,12.4,84,30.09,10.0,Calm,Calm,-,N/A,,Clear,0,2014-03-07 01:35:00
7:55 PM,16.7,12.7,84,30.09,10.0,Calm,Calm,-,N/A,,Clear,0,2014-03-07 01:55:00
8:15 PM,16.7,13.1,86,30.09,10.0,Calm,Calm,-,N/A,,Clear,0,2014-03-07 02:15:00
8:35 PM,16.3,12.6,85,30.09,10.0,SSE,3.5,-,N/A,,Clear,150,2014-03-07 02:35:00
8:55 PM,15.4,11.5,84,30.09,10.0,SSE,4.6,-,N/A,,Clear,150,2014-03-07 02:55:00
9:15 PM,13.1,10.2,88,30.09,10.0,SSE,5.8,-,N/A,,Clear,150,2014-03-07 03:15:00
9:35 PM,14.2,10.8,86,30.08,10.0,SSE,6.9,-,N/A,,Clear,150,2014-03-07 03:35:00
9:55 PM,14.0,10.4,86,30.09,10.0,SSE,4.6,-,N/A,,Clear,160,2014-03-07 03:55:00
10:15 PM,15.3,11.3,84,30.08,10.0,SSE,4.6,-,N/A,,Clear,150,2014-03-07 04:15:00
10:35 PM,15.6,11.7,84,30.07,10.0,SSE,6.9,-,N/A,,Clear,150,2014-03-07 04:35:00
10:55 PM,16.2,12.2,84,30.06,10.0,SSE,4.6,-,N/A,,Clear,150,2014-03-07 04:55:00
11:15 PM,15.8,12.0,85,30.06,10.0,South,5.8,-,N/A,,Clear,170,2014-03-07 05:15:00
11:35 PM,15.8,12.7,88,30.05,7.0,South,3.5,-,N/A,,Clear,170,2014-03-07 05:35:00
11:55 PM,11.8,8.6,87,30.04,7.0,South,6.9,-,N/A,,Clear,170,2014-03-07 05:55:00